Date,Installs,Update checks
2021-03-26,0,0
2021-03-27,0,0
2021-03-28,0,0
2021-03-29,0,0
2021-03-30,1,0
2021-03-31,0,0
2021-04-01,0,0
2021-04-02,0,1
2021-04-03,2,1
2021-04-04,0,0
2021-04-05,0,1
2021-04-06,1,0
2021-04-07,0,0
2021-04-08,0,1
2021-04-09,0,0
2021-04-10,0,1
2021-04-11,2,1
2021-04-12,1,2
2021-04-13,2,2
2021-04-14,1,1
2021-04-15,1,3
2021-04-16,0,4
2021-04-17,0,3
2021-04-18,0,3
2021-04-19,0,4
2021-04-20,0,3
2021-04-21,1,2
2021-04-22,2,1
2021-04-23,2,4
2021-04-24,0,5
2021-04-25,1,5
2021-04-26,0,6
2021-04-27,0,3
2021-04-28,0,5
2021-04-29,1,5
2021-04-30,0,4
2021-05-01,0,4
2021-05-02,2,3
2021-05-03,1,4
2021-05-04,1,5
2021-05-05,1,5
2021-05-06,0,5
2021-05-07,1,5
2021-05-08,1,6
2021-05-09,2,7
2021-05-10,2,7
2021-05-11,2,8
2021-05-12,0,9
2021-05-13,1,8
2021-05-14,1,7
2021-05-15,2,7
2021-05-16,0,6
2021-05-17,2,5
2021-05-18,1,5
2021-05-19,2,8
2021-05-20,0,9
2021-05-21,2,5
2021-05-22,1,7
2021-05-23,0,5
2021-05-24,0,11
2021-05-25,0,6
2021-05-26,1,10
2021-05-27,0,4
2021-05-28,1,8
2021-05-29,2,9
2021-05-30,1,7
2021-05-31,1,5
2021-06-01,2,8
2021-06-02,0,6
2021-06-03,1,7
2021-06-04,1,5
2021-06-05,0,3
2021-06-06,0,8
2021-06-07,0,6
2021-06-08,2,7
2021-06-09,0,9
2021-06-10,0,8
2021-06-11,0,6
2021-06-12,0,8
2021-06-13,0,7
2021-06-14,2,8
2021-06-15,1,9
2021-06-16,0,8
2021-06-17,1,7
2021-06-18,2,7
2021-06-19,1,10
2021-06-20,2,8
2021-06-21,1,8
2021-06-22,0,9
2021-06-23,1,5
2021-06-24,0,7
2021-06-25,0,10
2021-06-26,0,9
2021-06-27,1,10
2021-06-28,0,6
2021-06-29,0,12
2021-06-30,2,8
2021-07-01,2,11
2021-07-02,0,8
2021-07-03,0,6
2021-07-04,1,10
2021-07-05,0,6
2021-07-06,1,12
2021-07-07,0,10
2021-07-08,2,11
2021-07-09,4,10
2021-07-10,4,9
2021-07-11,0,10
2021-07-12,0,11
2021-07-13,0,13
2021-07-14,0,8
2021-07-15,2,7
2021-07-16,0,12
2021-07-17,0,10
2021-07-18,0,0
2021-07-19,1,2
2021-07-20,0,11
2021-07-21,1,9
2021-07-22,2,9
2021-07-23,0,10
2021-07-24,0,9
2021-07-25,0,9
2021-07-26,0,9
2021-07-27,0,12
2021-07-28,1,10
2021-07-29,1,11
2021-07-30,1,12
2021-07-31,0,11
2021-08-01,0,10
2021-08-02,3,15
2021-08-03,1,8
2021-08-04,0,12
2021-08-05,2,9
2021-08-06,0,11
2021-08-07,0,9
2021-08-08,1,15
2021-08-09,3,15
2021-08-10,0,13
2021-08-11,0,13
2021-08-12,2,8
2021-08-13,2,12
2021-08-14,1,10
2021-08-15,3,9
2021-08-16,1,15
2021-08-17,0,13
2021-08-18,2,13
2021-08-19,0,12
2021-08-20,0,8
2021-08-21,2,4
2021-08-22,1,13
2021-08-23,1,11
2021-08-24,0,12
2021-08-25,0,12
2021-08-26,1,14
2021-08-27,0,8
2021-08-28,1,10
2021-08-29,1,11
2021-08-30,0,9
2021-08-31,1,10
2021-09-01,0,13
2021-09-02,1,7
2021-09-03,0,12
2021-09-04,0,7
2021-09-05,2,13
2021-09-06,2,10
2021-09-07,0,12
2021-09-08,0,6
2021-09-09,2,9
2021-09-10,1,10
2021-09-11,0,16
2021-09-12,0,11
2021-09-13,2,11
2021-09-14,0,15
2021-09-15,1,13
2021-09-16,2,19
2021-09-17,1,15
2021-09-18,2,13
2021-09-19,2,17
2021-09-20,1,15
2021-09-21,0,17
2021-09-22,0,12
2021-09-23,2,15
2021-09-24,0,16
2021-09-25,0,14
2021-09-26,1,14
2021-09-27,1,16
2021-09-28,2,19
2021-09-29,1,16
2021-09-30,0,15
2021-10-01,0,13
2021-10-02,0,14
2021-10-03,0,18
2021-10-04,0,20
2021-10-05,2,15
2021-10-06,0,14
2021-10-07,0,16
2021-10-08,1,20
2021-10-09,0,21
2021-10-10,0,15
2021-10-11,0,25
2021-10-12,2,18
2021-10-13,0,19
2021-10-14,1,19
2021-10-15,0,20
2021-10-16,1,18
2021-10-17,1,19
2021-10-18,3,15
2021-10-19,0,19
2021-10-20,1,16
2021-10-21,0,18
2021-10-22,2,20
2021-10-23,0,22
2021-10-24,0,19
2021-10-25,0,20
2021-10-26,0,17
2021-10-27,2,22
2021-10-28,0,21
2021-10-29,0,18
2021-10-30,0,20
2021-10-31,1,21
2021-11-01,1,22
2021-11-02,0,21
2021-11-03,0,23
2021-11-04,2,17
2021-11-05,0,19
2021-11-06,1,20
2021-11-07,0,24
2021-11-08,1,20
2021-11-09,0,23
2021-11-10,1,21
2021-11-11,0,24
2021-11-12,2,23
2021-11-13,0,23
2021-11-14,1,22
2021-11-15,2,20
2021-11-16,2,26
2021-11-17,1,20
2021-11-18,0,26
2021-11-19,0,24
2021-11-20,1,19
2021-11-21,1,27
2021-11-22,0,23
2021-11-23,1,25
2021-11-24,0,19
2021-11-25,0,23
2021-11-26,0,16
2021-11-27,0,21
2021-11-28,2,26
2021-11-29,0,26
2021-11-30,0,24
2021-12-01,1,23
2021-12-02,1,20
2021-12-03,2,21
2021-12-04,1,20
2021-12-05,1,24
2021-12-06,0,20
2021-12-07,2,24
2021-12-08,0,29
2021-12-09,1,21
2021-12-10,0,20
2021-12-11,2,22
2021-12-12,3,19
2021-12-13,2,21
2021-12-14,0,24
2021-12-15,1,19
2021-12-16,1,22
2021-12-17,0,17
2021-12-18,1,22
2021-12-19,0,21
2021-12-20,0,24
2021-12-21,1,21
2021-12-22,2,25
2021-12-23,1,22
2021-12-24,2,25
2021-12-25,0,20
2021-12-26,2,20
2021-12-27,0,19
2021-12-28,2,21
2021-12-29,2,20
2021-12-30,1,25
2021-12-31,3,20
2022-01-01,0,21
2022-01-02,2,19
2022-01-03,1,26
2022-01-04,3,29
2022-01-05,2,24
2022-01-06,2,33
2022-01-07,1,33
2022-01-08,2,33
2022-01-09,2,3
2022-01-10,0,0
2022-01-11,0,30
2022-01-12,75,49
2022-01-13,38,91
2022-01-14,9,95
2022-01-15,6,85
2022-01-16,3,86
2022-01-17,11,103
2022-01-18,0,102
2022-01-19,1,101
2022-01-20,4,99
2022-01-21,1,101
2022-01-22,2,87
2022-01-23,1,87
2022-01-24,0,100
2022-01-25,3,110
2022-01-26,0,93
2022-01-27,2,98
2022-01-28,0,92
2022-01-29,0,88
2022-01-30,2,83
2022-01-31,1,81
2022-02-01,2,79
2022-02-02,1,87
2022-02-03,2,79
2022-02-04,3,90
2022-02-05,2,87
2022-02-06,2,84
2022-02-07,7,104
2022-02-08,3,110
2022-02-09,1,111
2022-02-10,3,112
2022-02-11,1,108
2022-02-12,4,100
2022-02-13,1,101
2022-02-14,0,105
2022-02-15,3,96
2022-02-16,3,112
2022-02-17,1,110
2022-02-18,3,119
2022-02-19,0,101
2022-02-20,2,107
2022-02-21,1,103
2022-02-22,3,107
2022-02-23,3,117
2022-02-24,0,120
2022-02-25,4,111
2022-02-26,0,102
2022-02-27,0,83
2022-02-28,1,107
2022-03-01,1,95
2022-03-02,3,105
2022-03-03,0,112
2022-03-04,1,95
2022-03-05,1,102
2022-03-06,1,91
2022-03-07,3,110
2022-03-08,2,105
2022-03-09,1,111
2022-03-10,0,115
2022-03-11,1,105
2022-03-12,2,103
2022-03-13,0,95
2022-03-14,1,106
2022-03-15,1,104
2022-03-16,2,110
2022-03-17,2,106
2022-03-18,2,111
2022-03-19,1,96
2022-03-20,2,100
2022-03-21,1,106
2022-03-22,3,106
2022-03-23,1,119
2022-03-24,2,104
2022-03-25,0,112
2022-03-26,0,106
2022-03-27,1,92
2022-03-28,0,102
2022-03-29,0,112
2022-03-30,1,101
2022-03-31,1,116
2022-04-01,0,113
2022-04-02,3,114
2022-04-03,0,87
2022-04-04,2,102
2022-04-05,1,102
2022-04-06,0,110
2022-04-07,0,114
2022-04-08,1,116
2022-04-09,6,95
2022-04-10,4,98
2022-04-11,0,103
2022-04-12,3,108
2022-04-13,1,110
2022-04-14,1,112
2022-04-15,4,104
2022-04-16,0,100
2022-04-17,2,92
2022-04-18,0,102
2022-04-19,1,113
2022-04-20,0,103
2022-04-21,1,103
2022-04-22,1,108
2022-04-23,2,98
2022-04-24,0,108
2022-04-25,2,112
2022-04-26,0,118
2022-04-27,2,108
2022-04-28,1,112
2022-04-29,3,109
2022-04-30,1,104
2022-05-01,3,96
2022-05-02,0,102
2022-05-03,1,108
2022-05-04,5,107
2022-05-05,3,100
2022-05-06,1,107
2022-05-07,2,98
2022-05-08,2,101
2022-05-09,0,110
2022-05-10,0,105
2022-05-11,1,105
2022-05-12,1,121
2022-05-13,2,120
2022-05-14,1,107
2022-05-15,0,98
2022-05-16,1,105
2022-05-17,2,115
2022-05-18,1,106
2022-05-19,3,124
2022-05-20,1,111
2022-05-21,2,105
2022-05-22,3,103
2022-05-23,1,114
2022-05-24,1,110
2022-05-25,2,113
2022-05-26,3,107
2022-05-27,2,111
2022-05-28,0,113
2022-05-29,1,105
2022-05-30,1,113
2022-05-31,3,121
2022-06-01,3,117
2022-06-02,0,106
2022-06-03,6,105
2022-06-04,2,100
2022-06-05,2,103
2022-06-06,2,100
2022-06-07,4,94
2022-06-08,2,119
2022-06-09,3,108
2022-06-10,3,113
2022-06-11,1,104
2022-06-12,2,100
2022-06-13,2,107
2022-06-14,1,114
2022-06-15,0,107
2022-06-16,2,117
2022-06-17,0,120
2022-06-18,3,91
2022-06-19,2,109
2022-06-20,5,116
2022-06-21,2,131
2022-06-22,1,114
2022-06-23,1,110
2022-06-24,0,108
2022-06-25,0,103
2022-06-26,1,103
2022-06-27,1,119
2022-06-28,1,106
2022-06-29,1,133
2022-06-30,2,114
2022-07-01,1,128
2022-07-02,1,111
2022-07-03,0,109
2022-07-04,1,130
2022-07-05,0,109
2022-07-06,1,114
2022-07-07,1,115
2022-07-08,4,119
2022-07-09,5,105
2022-07-10,4,104
2022-07-11,3,117
2022-07-12,1,119
2022-07-13,1,111
2022-07-14,1,117
2022-07-15,2,105
2022-07-16,2,107
2022-07-17,1,114
2022-07-18,3,117
2022-07-19,4,114
2022-07-20,1,114
2022-07-21,0,126
2022-07-22,0,122
2022-07-23,3,112
2022-07-24,2,85
2022-07-25,3,128
2022-07-26,4,128
2022-07-27,3,126
2022-07-28,2,123
2022-07-29,0,125
2022-07-30,3,104
2022-07-31,3,112
2022-08-01,3,132
2022-08-02,2,121
2022-08-03,0,126
2022-08-04,0,119
2022-08-05,3,123
2022-08-06,1,109
2022-08-07,1,108
2022-08-08,3,122
2022-08-09,1,121
2022-08-10,3,127
2022-08-11,0,114
2022-08-12,1,126
2022-08-13,4,115
2022-08-14,6,108
2022-08-15,2,128
2022-08-16,2,132
2022-08-17,3,130
2022-08-18,1,122
2022-08-19,1,125
2022-08-20,1,116
2022-08-21,5,116
2022-08-22,1,125
2022-08-23,4,137
2022-08-24,6,137
2022-08-25,3,139
2022-08-26,2,129
2022-08-27,4,121
2022-08-28,1,126
2022-08-29,2,143
2022-08-30,3,128
2022-08-31,3,133
2022-09-01,1,129
2022-09-02,2,144
2022-09-03,1,122
2022-09-04,1,117
2022-09-05,1,133
2022-09-06,1,120
2022-09-07,1,144
2022-09-08,3,134
2022-09-09,3,147
2022-09-10,2,124
2022-09-11,1,128
2022-09-12,1,131
2022-09-13,7,146
2022-09-14,5,139
2022-09-15,1,140
2022-09-16,2,135
2022-09-17,2,131
2022-09-18,0,130
2022-09-19,4,134
2022-09-20,0,132
2022-09-21,2,140
2022-09-22,3,129
2022-09-23,3,133
2022-09-24,2,129
2022-09-25,4,125
2022-09-26,1,134
2022-09-27,3,139
2022-09-28,4,139
2022-09-29,2,151
2022-09-30,0,144
2022-10-01,1,130
2022-10-02,6,129
2022-10-03,2,121
2022-10-04,2,131
2022-10-05,2,138
2022-10-06,0,130
2022-10-07,1,125
2022-10-08,3,141
2022-10-09,4,136
2022-10-10,2,141
2022-10-11,3,139
2022-10-12,2,136
2022-10-13,1,153
2022-10-14,0,136
2022-10-15,1,133
2022-10-16,3,139
2022-10-17,2,146
2022-10-18,0,156
2022-10-19,0,166
2022-10-20,1,144
2022-10-21,5,153
2022-10-22,2,131
2022-10-23,2,122
2022-10-24,0,149
2022-10-25,1,155
2022-10-26,2,145
2022-10-27,3,142
2022-10-28,0,139
2022-10-29,2,138
2022-10-30,5,125
2022-10-31,2,153
2022-11-01,1,145
2022-11-02,2,154
2022-11-03,0,140
2022-11-04,0,141
2022-11-05,3,125
2022-11-06,6,133
2022-11-07,5,158
2022-11-08,5,142
2022-11-09,5,143
2022-11-10,7,159
2022-11-11,2,136
2022-11-12,6,156
2022-11-13,5,146
2022-11-14,3,150
2022-11-15,8,164
2022-11-16,7,156
2022-11-17,3,135
2022-11-18,4,112
2022-11-19,3,121
2022-11-20,3,121
2022-11-21,5,141
2022-11-22,2,139
2022-11-23,3,124
2022-11-24,1,140
2022-11-25,3,134
2022-11-26,2,135
2022-11-27,2,137
2022-11-28,1,148
2022-11-29,3,139
2022-11-30,1,142
2022-12-01,3,139
2022-12-02,5,143
2022-12-03,2,144
2022-12-04,4,138
2022-12-05,3,133
2022-12-06,4,150
2022-12-07,5,150
2022-12-08,2,139
2022-12-09,3,140
2022-12-10,2,133
2022-12-11,3,125
2022-12-12,5,137
2022-12-13,1,139
2022-12-14,1,116
2022-12-15,1,133
2022-12-16,1,129
2022-12-17,4,128
2022-12-18,4,122
2022-12-19,2,133
2022-12-20,4,126
2022-12-21,5,140
2022-12-22,3,135
2022-12-23,3,131
2022-12-24,3,128
2022-12-25,0,129
2022-12-26,2,131
2022-12-27,1,119
2022-12-28,5,146
2022-12-29,5,133
2022-12-30,4,151
2022-12-31,2,122
2023-01-01,2,136
2023-01-02,0,143
2023-01-03,4,150
2023-01-04,3,151
2023-01-05,0,151
2023-01-06,3,157
2023-01-07,2,157
2023-01-08,3,146
2023-01-09,5,158
2023-01-10,2,159
2023-01-11,4,148
2023-01-12,2,162
2023-01-13,5,157
2023-01-14,2,153
2023-01-15,1,170
2023-01-16,2,176
2023-01-17,3,180
2023-01-18,1,166
2023-01-19,5,163
2023-01-20,4,162
2023-01-21,4,142
2023-01-22,3,160
2023-01-23,4,154
2023-01-24,4,148
2023-01-25,4,166
2023-01-26,2,169
2023-01-27,4,172
2023-01-28,1,175
2023-01-29,5,184
2023-01-30,6,165
2023-01-31,5,181
2023-02-01,6,185
2023-02-02,1,193
2023-02-03,3,179
2023-02-04,2,170
2023-02-05,5,169
2023-02-06,3,184
2023-02-07,3,187
2023-02-08,2,181
2023-02-09,1,185
2023-02-10,2,180
2023-02-11,2,180
2023-02-12,2,187
2023-02-13,6,183
2023-02-14,5,189
2023-02-15,3,187
2023-02-16,7,187
2023-02-17,5,188
2023-02-18,3,180
2023-02-19,6,169
2023-02-20,5,194
2023-02-21,4,191
2023-02-22,7,200
2023-02-23,5,186
2023-02-24,5,181
2023-02-25,5,172
2023-02-26,5,185
2023-02-27,7,166
2023-02-28,2,221
2023-03-01,2,191
2023-03-02,3,195
2023-03-03,6,208
2023-03-04,3,173
2023-03-05,3,192
2023-03-06,3,200
2023-03-07,2,195
2023-03-08,7,192
2023-03-09,1,221
2023-03-10,1,197
2023-03-11,2,188
2023-03-12,4,205
2023-03-13,1,205
2023-03-14,6,219
2023-03-15,6,202
2023-03-16,2,203
2023-03-17,3,204
2023-03-18,3,183
2023-03-19,7,197
2023-03-20,4,204
2023-03-21,3,231
2023-03-22,4,206
2023-03-23,3,214
2023-03-24,4,210
2023-03-25,0,215
2023-03-26,3,204
2023-03-27,0,214
2023-03-28,2,215
2023-03-29,5,195
2023-03-30,0,217
2023-03-31,2,213
2023-04-01,7,213
2023-04-02,3,193
2023-04-03,5,211
2023-04-04,6,227
2023-04-05,3,208
2023-04-06,5,210
2023-04-07,6,205
2023-04-08,2,201
2023-04-09,2,200
2023-04-10,1,231
2023-04-11,4,230
2023-04-12,3,232
2023-04-13,3,224
2023-04-14,0,204
2023-04-15,2,222
2023-04-16,1,219
2023-04-17,4,230
2023-04-18,1,212
2023-04-19,5,220
2023-04-20,2,223
2023-04-21,3,229
2023-04-22,3,224
2023-04-23,3,203
2023-04-24,3,224
2023-04-25,9,225
2023-04-26,1,199
2023-04-27,2,233
2023-04-28,5,232
2023-04-29,3,215
2023-04-30,13,198
2023-05-01,6,215
2023-05-02,2,221
2023-05-03,4,205
2023-05-04,7,233
2023-05-05,8,227
2023-05-06,3,233
2023-05-07,6,216
2023-05-08,4,229
2023-05-09,3,231
2023-05-10,1,224
2023-05-11,3,220
2023-05-12,4,217
2023-05-13,2,215
2023-05-14,5,212
2023-05-15,3,215
2023-05-16,5,211
2023-05-17,5,227
2023-05-18,3,204
2023-05-19,7,222
2023-05-20,2,233
2023-05-21,4,217
2023-05-22,6,235
2023-05-23,8,234
2023-05-24,5,222
2023-05-25,2,220
2023-05-26,4,220
2023-05-27,0,218
2023-05-28,7,229
2023-05-29,7,235
2023-05-30,2,251
2023-05-31,8,240
2023-06-01,0,244
2023-06-02,2,228
2023-06-03,5,213
2023-06-04,9,227
2023-06-05,2,230
2023-06-06,1,231
2023-06-07,3,225
2023-06-08,0,238
2023-06-09,1,231
2023-06-10,7,238
2023-06-11,2,224
2023-06-12,2,230
2023-06-13,1,246
2023-06-14,6,236
2023-06-15,1,254
2023-06-16,4,250
2023-06-17,3,236
2023-06-18,0,227
2023-06-19,6,242
2023-06-20,1,246
2023-06-21,2,225
2023-06-22,3,247
2023-06-23,4,226
2023-06-24,2,236
2023-06-25,7,234
2023-06-26,5,246
2023-06-27,4,228
2023-06-28,2,241
2023-06-29,3,238
2023-06-30,4,248
2023-07-01,7,230
2023-07-02,6,220
2023-07-03,6,243
2023-07-04,2,249
2023-07-05,6,233
2023-07-06,5,243
2023-07-07,4,251
2023-07-08,3,243
2023-07-09,5,221
2023-07-10,6,255
2023-07-11,2,234
2023-07-12,5,249
2023-07-13,2,246
2023-07-14,2,254
2023-07-15,5,246
2023-07-16,4,230
2023-07-17,3,244
2023-07-18,3,245
2023-07-19,1,249
2023-07-20,2,243
2023-07-21,1,259
2023-07-22,2,226
2023-07-23,1,228
2023-07-24,5,232
2023-07-25,1,244
2023-07-26,2,247
2023-07-27,5,255
2023-07-28,7,247
2023-07-29,5,230
2023-07-30,3,257
2023-07-31,3,248
2023-08-01,7,237
2023-08-02,5,250
2023-08-03,4,235
2023-08-04,5,246
2023-08-05,10,229
2023-08-06,2,241
2023-08-07,5,263
2023-08-08,1,242
2023-08-09,2,246
2023-08-10,6,239
2023-08-11,3,262
2023-08-12,3,246
2023-08-13,7,236
2023-08-14,8,238
2023-08-15,3,258
2023-08-16,0,260
2023-08-17,7,260
2023-08-18,2,253
2023-08-19,3,253
2023-08-20,4,263
2023-08-21,5,254
2023-08-22,5,273
2023-08-23,3,268
2023-08-24,3,275
2023-08-25,5,251
2023-08-26,4,255
2023-08-27,8,250
2023-08-28,6,257
2023-08-29,4,260
2023-08-30,3,277
2023-08-31,6,263
2023-09-01,2,275
2023-09-02,2,251
2023-09-03,3,259
2023-09-04,4,277
2023-09-05,1,272
2023-09-06,2,270
2023-09-07,5,301
2023-09-08,4,262
2023-09-09,6,252
2023-09-10,1,262
2023-09-11,5,269
2023-09-12,4,262
2023-09-13,1,267
2023-09-14,1,264
2023-09-15,2,266
2023-09-16,4,247
2023-09-17,4,245
2023-09-18,4,274
2023-09-19,0,270
2023-09-20,2,267
2023-09-21,4,285
2023-09-22,5,263
2023-09-23,7,265
2023-09-24,2,274
2023-09-25,2,273
2023-09-26,4,270
2023-09-27,1,281
2023-09-28,5,272
2023-09-29,3,263
2023-09-30,2,261
2023-10-01,4,245
2023-10-02,2,253
2023-10-03,3,244
2023-10-04,7,268
2023-10-05,4,274
2023-10-06,5,279
2023-10-07,5,275
2023-10-08,3,250
2023-10-09,2,283
2023-10-10,5,268
2023-10-11,4,294
2023-10-12,3,301
2023-10-13,4,299
2023-10-14,4,252
2023-10-15,5,281
2023-10-16,0,301
2023-10-17,3,304
2023-10-18,5,308
2023-10-19,2,277
2023-10-20,2,281
2023-10-21,2,258
2023-10-22,4,273
2023-10-23,1,286
2023-10-24,3,292
2023-10-25,1,281
2023-10-26,2,281
2023-10-27,3,282
2023-10-28,3,268
2023-10-29,3,256
2023-10-30,6,286
2023-10-31,4,287
2023-11-01,3,299
2023-11-02,7,286
2023-11-03,2,291
2023-11-04,3,276
2023-11-05,5,281
2023-11-06,3,273
2023-11-07,0,274
2023-11-08,3,307
2023-11-09,7,278
2023-11-10,3,290
2023-11-11,8,265
2023-11-12,4,271
2023-11-13,8,282
2023-11-14,3,290
2023-11-15,1,285
2023-11-16,2,293
2023-11-17,2,282
2023-11-18,3,260
2023-11-19,3,243
2023-11-20,9,281
2023-11-21,4,290
2023-11-22,6,295
2023-11-23,1,270
2023-11-24,4,274
2023-11-25,2,248
2023-11-26,3,268
2023-11-27,4,272
2023-11-28,3,288
2023-11-29,3,285
2023-11-30,4,263
2023-12-01,4,267
2023-12-02,7,273
2023-12-03,5,248
2023-12-04,2,290
2023-12-05,1,215
2023-12-06,8,212
2023-12-07,2,220
2023-12-08,6,288
2023-12-09,4,202
2023-12-10,4,222
2023-12-11,4,221
2023-12-12,4,223
2023-12-13,2,216
2023-12-14,6,207
2023-12-15,6,207
2023-12-16,5,216
2023-12-17,8,268
2023-12-18,7,310
2023-12-19,4,260
2023-12-20,0,254
2023-12-21,3,228
2023-12-22,4,242
2023-12-23,4,249
2023-12-24,2,240
2023-12-25,5,225
2023-12-26,1,243
2023-12-27,1,250
2023-12-28,7,234
2023-12-29,1,255
2023-12-30,8,248
2023-12-31,3,251
2024-01-01,4,230
2024-01-02,2,251
2024-01-03,2,246
2024-01-04,5,256
2024-01-05,2,261
2024-01-06,2,263
2024-01-07,7,256
2024-01-08,1,249
2024-01-09,4,266
2024-01-10,4,279
2024-01-11,2,285
2024-01-12,1,258
2024-01-13,8,280
2024-01-14,4,273
2024-01-15,3,279
2024-01-16,4,278
2024-01-17,3,383
2024-01-18,8,299
2024-01-19,6,370
2024-01-20,6,289
2024-01-21,2,258
2024-01-22,6,278
2024-01-23,3,287
2024-01-24,4,295
2024-01-25,5,276
2024-01-26,1,270
2024-01-27,2,282
2024-01-28,4,282
2024-01-29,4,287
2024-01-30,4,283
2024-01-31,5,291
2024-02-01,5,291
2024-02-02,3,294
2024-02-03,5,281
2024-02-04,4,261
2024-02-05,3,296
2024-02-06,1,286
2024-02-07,2,262
2024-02-08,3,267
2024-02-09,0,276
2024-02-10,2,250
2024-02-11,2,280
2024-02-12,0,246
2024-02-13,3,278
2024-02-14,2,274
2024-02-15,4,280
2024-02-16,3,277
2024-02-17,3,278
2024-02-18,9,275
2024-02-19,4,301
2024-02-20,7,310
2024-02-21,2,305
2024-02-22,2,315
2024-02-23,7,288
2024-02-24,1,399
2024-02-25,1,323
2024-02-26,0,322
2024-02-27,1,324
2024-02-28,2,313
2024-02-29,1,298
2024-03-01,3,319
2024-03-02,4,316
2024-03-03,5,302
2024-03-04,3,322
2024-03-05,4,308
2024-03-06,1,316
2024-03-07,2,327
2024-03-08,3,315
2024-03-09,4,329
2024-03-10,4,305
2024-03-11,5,307
2024-03-12,7,310
2024-03-13,2,324
2024-03-14,2,313
2024-03-15,0,316
2024-03-16,2,321
2024-03-17,2,289
2024-03-18,6,323
2024-03-19,2,326
2024-03-20,4,310
2024-03-21,5,326
2024-03-22,2,315
2024-03-23,5,317
2024-03-24,7,295
2024-03-25,5,329
2024-03-26,4,316
2024-03-27,5,336
2024-03-28,5,327
2024-03-29,7,333
2024-03-30,7,388
2024-03-31,7,378
2024-04-01,3,355
2024-04-02,5,353
2024-04-03,6,330
2024-04-04,4,339
2024-04-05,6,316
2024-04-06,3,337
2024-04-07,6,310
2024-04-08,3,353
2024-04-09,8,322
2024-04-10,8,349
2024-04-11,1,333
2024-04-12,2,328
2024-04-13,1,348
2024-04-14,3,317
2024-04-15,2,346
2024-04-16,3,337
2024-04-17,7,335
2024-04-18,6,347
2024-04-19,6,334
2024-04-20,2,318
2024-04-21,5,327
2024-04-22,2,321
2024-04-23,2,339
2024-04-24,3,333
2024-04-25,7,347
2024-04-26,4,324
2024-04-27,7,312
2024-04-28,3,344
2024-04-29,1,329
2024-04-30,2,355
2024-05-01,2,356
2024-05-02,2,334
2024-05-03,4,330
2024-05-04,4,346
2024-05-05,3,348
2024-05-06,6,352
2024-05-07,3,354
2024-05-08,2,343
2024-05-09,4,322
2024-05-10,6,352
2024-05-11,7,334
2024-05-12,4,328
2024-05-13,1,355
2024-05-14,3,350
2024-05-15,5,347
2024-05-16,1,339
2024-05-17,2,339
2024-05-18,6,337
2024-05-19,4,342
2024-05-20,2,356
2024-05-21,5,355
2024-05-22,3,353
2024-05-23,3,353
2024-05-24,2,342
2024-05-25,3,338
2024-05-26,8,321
2024-05-27,2,348
2024-05-28,4,342
2024-05-29,6,340
2024-05-30,2,361
2024-05-31,2,326
2024-06-01,4,350
2024-06-02,6,334
2024-06-03,2,337
2024-06-04,4,354
2024-06-05,2,352
2024-06-06,4,353
2024-06-07,3,350
2024-06-08,0,364
2024-06-09,8,356
2024-06-10,3,414
2024-06-11,1,452
2024-06-12,7,389
2024-06-13,5,361
2024-06-14,1,157
